South Haven, MI

8:43 AM EST on January 16, 2018 (GMT -0500)
South Haven

Weather History for KLWA - January, 2013

Change the Weather History Date:

Wednesday, January 16, 2013

  Actual Average (KBEH) Record (KBEH)
Temperature  
Mean Temperature 28 °F -  
Max Temperature 36 °F 30 °F 60 °F (1949)
Min Temperature 19 °F 16 °F -16 °F (1972)
Degree Days  
Heating Degree Days 38    
Moisture  
Dew Point 22 °F    
Average Humidity 75    
Maximum Humidity 90    
Minimum Humidity 56    
Precipitation  
Precipitation 0.00 in - - ()
Sea Level Pressure  
Sea Level Pressure 29.94 in    
Wind  
Wind Speed 8 mph (SW)    
Max Wind Speed 22 mph    
Max Gust Speed 31 mph    
Visibility 10 miles    
Events Snow    
Averages and records for this station are not official NWS values.
T = Trace of Precipitation, MM = Missing Value Source: NWS Daily Summary

Daily Weather History Graph

Daily Weather History Graph

Search for Another Location

Airport or City:

Trip Planner

Search our weather history database for the weather conditions in past years. The results will help you decide how hot, cold, wet, or windy it might be!

Date:

Astronomy

Jan. 16, 2013 Rise Set
Actual Time 8:10 AM EST 5:39 PM EST
Civil Twilight 7:40 AM EST 6:10 PM EST
Nautical Twilight 7:05 AM EST 6:44 PM EST
Astronomical Twilight 6:31 AM EST 7:18 PM EST
Moon 10:39 AM EST 11:38 PM EST
Length of Visible Light 10h 30m
Length of Day
9h 28m
Waxing Crescent, 28% of the Moon is Illuminated
Jan 16
Waxing Crescent
Jan 18
First Quarter
Jan 26
Full
Feb 3
Last Quarter
Feb 10
New

Hourly Weather History & Observations

Time (EST) Temp. Windchill Dew Point Humidity Pressure Visibility Wind Dir Wind Speed Gust Speed Precip Events Conditions
12:15 AM 21.7 °F - 17.8 °F 85% 30.12 in 10.0 mi Calm Calm - N/A   Clear
12:35 AM 21.4 °F - 17.6 °F 85% 30.11 in 10.0 mi Calm Calm - N/A   Scattered Clouds
1:15 AM 21.9 °F - 18.1 °F 85% 30.08 in 10.0 mi Calm Calm - N/A   Scattered Clouds
1:34 AM 21.7 °F 17.0 °F 18.0 °F 85% 30.07 in 10.0 mi South 3.5 mph - N/A   Clear
1:55 AM 21.7 °F 17.0 °F 18.0 °F 85% 30.07 in 10.0 mi South 3.5 mph - N/A   Clear
2:15 AM 21.7 °F - 17.6 °F 84% 30.07 in 10.0 mi Calm Calm - N/A   Clear
2:34 AM 20.5 °F - 17.2 °F 87% 30.07 in 10.0 mi Calm Calm - N/A   Clear
2:55 AM 19.8 °F - 16.9 °F 89% 30.07 in 10.0 mi Calm Calm - N/A   Mostly Cloudy
3:15 AM 19.4 °F - 16.9 °F 90% 30.06 in 7.0 mi Calm Calm - N/A   Mostly Cloudy
3:34 AM 19.9 °F - 16.7 °F 87% 30.06 in 10.0 mi Calm Calm - N/A   Scattered Clouds
3:55 AM 21.2 °F - 17.6 °F 86% 30.05 in 10.0 mi Calm Calm - N/A   Clear
4:14 AM 21.9 °F 17.2 °F 17.6 °F 83% 30.05 in 10.0 mi South 3.5 mph - N/A   Clear
4:35 AM 22.1 °F 15.9 °F 18.3 °F 85% 30.04 in 10.0 mi South 4.6 mph - N/A   Mostly Cloudy
4:55 AM 22.5 °F 16.3 °F 18.3 °F 84% 30.03 in 10.0 mi South 4.6 mph - N/A   Mostly Cloudy
5:14 AM 22.6 °F 15.3 °F 18.3 °F 83% 30.02 in 10.0 mi South 5.8 mph - N/A   Scattered Clouds
5:35 AM 23.0 °F 14.7 °F 18.3 °F 82% 30.01 in 10.0 mi South 6.9 mph - N/A   Clear
5:55 AM 22.6 °F 14.3 °F 18.1 °F 83% 30.00 in 10.0 mi South 6.9 mph - N/A   Clear
6:15 AM 22.3 °F 14.9 °F 18.3 °F 85% 29.98 in 10.0 mi South 5.8 mph - N/A   Clear
6:35 AM 22.1 °F 14.7 °F 18.0 °F 84% 29.97 in 10.0 mi South 5.8 mph - N/A   Clear
6:54 AM 22.6 °F 14.3 °F 18.3 °F 83% 29.97 in 10.0 mi SSW 6.9 mph - N/A   Clear
7:35 AM 23.0 °F 15.8 °F 19.2 °F 85% 29.96 in 10.0 mi SW 5.8 mph - N/A   Scattered Clouds
7:54 AM 22.6 °F 14.3 °F 19.0 °F 86% 29.95 in 10.0 mi SSW 6.9 mph - N/A   Scattered Clouds
8:15 AM 22.6 °F 15.3 °F 19.2 °F 87% 29.95 in 10.0 mi SSW 5.8 mph - N/A   Clear
8:35 AM 22.3 °F 14.9 °F 19.2 °F 88% 29.95 in 7.0 mi SSW 5.8 mph - N/A   Clear
8:54 AM 23.4 °F 16.2 °F 19.8 °F 86% 29.95 in 10.0 mi South 5.8 mph - N/A   Scattered Clouds
9:15 AM 25.0 °F 18.1 °F 20.5 °F 83% 29.95 in 10.0 mi South 5.8 mph - N/A   Clear
9:34 AM 30.0 °F 19.5 °F 21.2 °F 70% 29.95 in 10.0 mi WSW 13.8 mph 18.4 mph N/A   Clear
9:55 AM 30.7 °F 19.6 °F 21.2 °F 68% 29.95 in 10.0 mi WSW 16.1 mph 21.9 mph N/A   Clear
10:15 AM 31.1 °F 20.5 °F 20.5 °F 65% 29.94 in 10.0 mi SW 15.0 mph 20.7 mph N/A   Scattered Clouds
10:35 AM 31.1 °F 20.5 °F 20.1 °F 64% 29.92 in 10.0 mi SW 15.0 mph 23.0 mph N/A   Scattered Clouds
10:55 AM 31.6 °F 20.4 °F 19.9 °F 62% 29.91 in 10.0 mi SW 17.3 mph 26.5 mph N/A   Clear
11:14 AM 31.6 °F 21.2 °F 20.7 °F 64% 29.90 in 10.0 mi SW 15.0 mph 26.5 mph N/A   Clear
11:35 AM 31.6 °F 20.4 °F 20.7 °F 64% 29.91 in 10.0 mi WSW 17.3 mph 24.2 mph N/A   Clear
11:54 AM 31.5 °F 19.4 °F 21.0 °F 65% 29.90 in 10.0 mi WSW 19.6 mph 25.3 mph N/A   Clear
12:15 PM 32.0 °F 21.6 °F 22.1 °F 67% 29.88 in 10.0 mi SW 15.0 mph 26.5 mph N/A   Scattered Clouds
12:35 PM 32.0 °F 19.8 °F 21.0 °F 64% 29.87 in 10.0 mi SW 20.7 mph 26.5 mph N/A   Clear
12:54 PM 32.2 °F 20.0 °F 19.9 °F 61% 29.86 in 10.0 mi SW 20.7 mph 26.5 mph N/A   Clear
1:15 PM 32.4 °F 21.3 °F 19.2 °F 58% 29.84 in 10.0 mi SW 17.3 mph 25.3 mph N/A   Clear
1:35 PM 33.3 °F 22.8 °F 19.6 °F 57% 29.83 in 10.0 mi SW 16.1 mph 26.5 mph N/A   Scattered Clouds
1:55 PM 32.7 °F 22.5 °F 18.7 °F 56% 29.82 in 10.0 mi SW 15.0 mph 26.5 mph N/A   Overcast
2:14 PM 32.4 °F 22.1 °F 19.2 °F 58% 29.82 in 10.0 mi SW 15.0 mph 27.6 mph N/A   Overcast
2:34 PM 32.5 °F 20.8 °F 19.9 °F 60% 29.82 in 10.0 mi SW 19.6 mph 27.6 mph N/A   Overcast
2:55 PM 33.1 °F 21.2 °F 20.5 °F 60% 29.81 in 10.0 mi SW 20.7 mph 26.5 mph N/A   Overcast
3:14 PM 33.4 °F 22.7 °F 21.2 °F 61% 29.81 in 10.0 mi SSW 17.3 mph 25.3 mph N/A   Overcast
3:35 PM 33.4 °F 22.0 °F 21.2 °F 61% 29.81 in 10.0 mi SW 19.6 mph 28.8 mph N/A   Overcast
3:55 PM 33.8 °F 22.8 °F 22.1 °F 62% 29.82 in 10.0 mi SW 18.4 mph 27.6 mph N/A   Overcast
4:15 PM 34.2 °F 25.2 °F 23.0 °F 64% 29.82 in 10.0 mi SW 12.7 mph 25.3 mph N/A   Overcast
4:35 PM 34.7 °F 23.1 °F 23.7 °F 64% 29.84 in 10.0 mi WSW 21.9 mph 27.6 mph N/A   Overcast
4:55 PM 34.0 °F 23.0 °F 26.6 °F 74% 29.85 in 5.0 mi WSW 18.4 mph 31.1 mph N/A Snow Light Snow
5:14 PM 34.7 °F 25.9 °F 26.6 °F 72% 29.85 in 10.0 mi WSW 12.7 mph 27.6 mph N/A   Overcast
5:35 PM 35.1 °F 24.5 °F 26.2 °F 70% 29.85 in 10.0 mi SW 18.4 mph 31.1 mph N/A   Overcast
5:54 PM 35.1 °F 26.4 °F 26.8 °F 72% 29.86 in 10.0 mi SW 12.7 mph 24.2 mph N/A   Overcast
6:15 PM 36.0 °F 25.6 °F 26.2 °F 68% 29.87 in 10.0 mi WSW 18.4 mph 27.6 mph N/A   Overcast
6:34 PM 35.2 °F 25.0 °F 26.8 °F 71% 29.89 in 10.0 mi WSW 17.3 mph 25.3 mph N/A   Overcast
6:54 PM 35.4 °F 26.0 °F 27.5 °F 73% 29.89 in 10.0 mi West 15.0 mph 28.8 mph N/A   Overcast
7:15 PM 35.2 °F 25.0 °F 28.0 °F 75% 29.89 in 10.0 mi West 17.3 mph 25.3 mph N/A   Overcast
7:35 PM 35.4 °F 25.6 °F 28.4 °F 76% 29.90 in 10.0 mi West 16.1 mph 23.0 mph N/A   Overcast
7:54 PM 35.6 °F 26.2 °F 27.5 °F 72% 29.91 in 10.0 mi West 15.0 mph 25.3 mph N/A   Overcast
8:14 PM 35.6 °F 26.2 °F 28.2 °F 75% 29.92 in 10.0 mi West 15.0 mph 25.3 mph N/A   Overcast
8:34 PM 35.6 °F 27.5 °F 28.2 °F 75% 29.93 in 10.0 mi West 11.5 mph 23.0 mph N/A   Overcast
8:55 PM 35.6 °F 27.5 °F 28.8 °F 76% 29.94 in 10.0 mi West 11.5 mph 20.7 mph N/A   Overcast
9:15 PM 35.6 °F 28.0 °F 29.1 °F 77% 29.94 in 10.0 mi West 10.4 mph 20.7 mph N/A   Overcast
9:35 PM 35.6 °F 27.5 °F 28.9 °F 77% 29.95 in 10.0 mi West 11.5 mph 20.7 mph N/A   Overcast
9:55 PM 35.6 °F 27.5 °F 29.1 °F 77% 29.95 in 10.0 mi West 11.5 mph 19.6 mph N/A   Overcast
10:14 PM 36.0 °F 28.5 °F 29.1 °F 76% 29.96 in 10.0 mi WNW 10.4 mph 20.7 mph N/A   Overcast
10:34 PM 36.0 °F 28.0 °F 29.1 °F 76% 29.97 in 10.0 mi WNW 11.5 mph 21.9 mph N/A   Overcast
10:54 PM 36.1 °F 27.3 °F 29.3 °F 76% 29.97 in 10.0 mi WNW 13.8 mph 20.7 mph N/A   Overcast
11:15 PM 36.3 °F 28.9 °F 28.9 °F 75% 29.97 in 10.0 mi WNW 10.4 mph 17.3 mph N/A   Overcast
11:34 PM 36.3 °F 30.8 °F 28.2 °F 72% 29.99 in 10.0 mi WNW 6.9 mph - N/A   Overcast
11:55 PM 36.5 °F 28.7 °F 28.4 °F 72% 29.99 in 10.0 mi WNW 11.5 mph 18.4 mph N/A   Overcast